Ohio State University, OH

9:18 PM EDT on July 23, 2017 (GMT -0400)
Ohio State University

Weather History for KOSU - April, 2013

Change the Weather History Date:

Wednesday, April 24, 2013

  Actual Average Record
Temperature  
Mean Temperature 49 °F -  
Max Temperature 63 °F 63 °F 75 °F (2008)
Min Temperature 36 °F 41 °F 28 °F (2015)
Degree Days  
Heating Degree Days 16    
Moisture  
Dew Point 46 °F    
Average Humidity 86    
Maximum Humidity 100    
Minimum Humidity 62    
Precipitation  
Precipitation 0.65 in - - ()
Sea Level Pressure  
Sea Level Pressure 29.89 in    
Wind  
Wind Speed 9 mph (West)    
Max Wind Speed 18 mph    
Max Gust Speed 25 mph    
Visibility 7 miles    
Events Rain    
Averages and records for this station are not official NWS values.
T = Trace of Precipitation, MM = Missing Value Source: NWS Daily Summary

Daily Weather History Graph

Daily Weather History Graph

Search for Another Location

Airport or City:

Trip Planner

Search our weather history database for the weather conditions in past years. The results will help you decide how hot, cold, wet, or windy it might be!

Date:

Astronomy

Apr. 24, 2013 Rise Set
Actual Time 6:41 AM EDT 8:20 PM EDT
Civil Twilight 6:12 AM EDT 8:49 PM EDT
Nautical Twilight 5:37 AM EDT 9:24 PM EDT
Astronomical Twilight 5:00 AM EDT 10:01 PM EDT
Moon 7:22 PM EDT 5:44 AM EDT
Length of Visible Light 14h 36m
Length of Day
13h 39m
Waxing Gibbous, 98% of the Moon is Illuminated
Apr 24
Waxing Gibbous
Apr 25
Full
May 2
Last Quarter
May 9
New
May 18
First Quarter

Hourly Weather History & Observations

Time (EDT) Temp. Windchill Dew Point Humidity Pressure Visibility Wind Dir Wind Speed Gust Speed Precip Events Conditions
12:53 AM 62.1 °F - 48.9 °F 62% 29.86 in 10.0 mi South 8.1 mph - 0.00 in   Overcast
1:53 AM 62.1 °F - 48.9 °F 62% 29.83 in 10.0 mi SSE 8.1 mph - N/A   Overcast
2:53 AM 61.0 °F - 50.0 °F 67% 29.82 in 10.0 mi South 6.9 mph - 0.00 in Rain Light Rain
3:53 AM 59.0 °F - 51.1 °F 75% 29.80 in 10.0 mi SSE 5.8 mph - 0.02 in   Overcast
4:53 AM 60.1 °F - 50.0 °F 69% 29.78 in 10.0 mi South 10.4 mph - N/A   Overcast
6:53 AM 61.0 °F - 50.0 °F 67% 29.78 in 10.0 mi South 10.4 mph 18.4 mph N/A   Overcast
7:53 AM 61.0 °F - 51.1 °F 70% 29.78 in 10.0 mi SSW 11.5 mph - N/A   Overcast
8:53 AM 60.1 °F - 53.1 °F 78% 29.78 in 9.0 mi WSW 3.5 mph - 0.00 in Rain Light Rain
9:21 AM 57.2 °F - 55.4 °F 94% 29.80 in 2.0 mi West 8.1 mph - 0.04 in Rain Rain
9:37 AM 57.2 °F - 55.4 °F 94% 29.79 in 8.0 mi SW 3.5 mph - 0.06 in Rain Light Rain
9:53 AM 57.9 °F - 55.9 °F 93% 29.77 in 8.0 mi Calm Calm - 0.06 in Rain Light Rain
10:30 AM 57.2 °F - 55.4 °F 94% 29.77 in 1.8 mi SW 5.8 mph - 0.05 in Rain Rain
10:35 AM 57.2 °F - 55.4 °F 94% 29.78 in 1.5 mi SW 6.9 mph - 0.09 in Rain Heavy Rain
10:46 AM 53.6 °F - 51.8 °F 94% 29.79 in 0.8 mi West 4.6 mph 17.3 mph 0.20 in Rain Heavy Rain
10:53 AM 52.0 °F - 52.0 °F 100% 29.78 in 1.0 mi West 8.1 mph - 0.25 in Rain Heavy Rain
11:02 AM 51.8 °F - 51.8 °F 100% 29.79 in 2.0 mi WNW 10.4 mph - 0.03 in Rain Rain
11:12 AM 51.8 °F - 51.8 °F 100% 29.79 in 4.0 mi WNW 9.2 mph - 0.05 in Rain Rain
11:24 AM 50.0 °F - 50.0 °F 100% 29.82 in 2.0 mi WNW 16.1 mph 23.0 mph 0.11 in Rain Heavy Rain
11:32 AM 50.0 °F - 50.0 °F 100% 29.82 in 1.8 mi WNW 10.4 mph - 0.15 in Rain Heavy Rain
11:42 AM 50.0 °F - 48.2 °F 94% 29.81 in 2.0 mi NW 8.1 mph - 0.19 in Rain Heavy Rain
11:53 AM 50.0 °F - 48.9 °F 96% 29.78 in 3.0 mi Calm Calm - 0.22 in Rain Light Rain
12:21 PM 48.2 °F - 48.2 °F 100% 29.79 in 10.0 mi NNW 3.5 mph - 0.01 in Rain Light Rain
12:48 PM 48.2 °F - 46.4 °F 93% 29.80 in 3.0 mi WNW 4.6 mph - 0.04 in Rain Rain
12:53 PM 50.0 °F - 46.9 °F 89% 29.81 in 4.0 mi West 5.8 mph - 0.04 in Rain Light Rain
1:53 PM 45.0 °F 37.4 °F 43.0 °F 93% 29.86 in 3.0 mi NW 18.4 mph 25.3 mph 0.05 in Rain Rain
2:00 PM 44.6 °F 36.9 °F 42.8 °F 93% 29.86 in 1.5 mi NW 18.4 mph 24.2 mph 0.01 in Rain Light Rain
2:08 PM 44.6 °F 38.4 °F 42.8 °F 93% 29.87 in 2.0 mi WNW 12.7 mph 24.2 mph 0.01 in Rain Light Rain
2:23 PM 44.6 °F 37.4 °F 42.8 °F 93% 29.88 in 2.0 mi NW 16.1 mph - 0.01 in Rain Light Rain
2:37 PM 44.6 °F 38.4 °F 42.8 °F 93% 29.89 in 9.0 mi NW 12.7 mph 23.0 mph 0.01 in Rain Light Rain
2:53 PM 44.1 °F 36.8 °F 41.0 °F 89% 29.89 in 10.0 mi NW 16.1 mph 20.7 mph 0.01 in   Overcast
3:23 PM 42.8 °F 34.8 °F 39.2 °F 87% 29.91 in 10.0 mi WNW 17.3 mph 24.2 mph N/A   Overcast
3:53 PM 42.1 °F 34.9 °F 37.9 °F 85% 29.95 in 10.0 mi NW 13.8 mph 24.2 mph N/A   Overcast
4:53 PM 42.1 °F 35.2 °F 37.0 °F 82% 30.00 in 10.0 mi WNW 12.7 mph - N/A   Overcast
5:53 PM 41.0 °F 33.5 °F 36.0 °F 82% 30.06 in 10.0 mi WNW 13.8 mph - N/A   Overcast
6:53 PM 42.1 °F 35.2 °F 36.0 °F 79% 30.09 in 10.0 mi WNW 12.7 mph 21.9 mph 0.00 in   Overcast
7:14 PM 41.0 °F 32.5 °F 33.8 °F 76% 30.09 in 10.0 mi WNW 17.3 mph - N/A   Scattered Clouds
7:53 PM 41.0 °F 34.7 °F 33.1 °F 73% 30.12 in 10.0 mi WNW 10.4 mph - N/A   Scattered Clouds
8:53 PM 37.9 °F 33.5 °F 34.0 °F 86% 30.16 in 10.0 mi West 5.8 mph - N/A   Clear
9:53 PM 36.0 °F 31.1 °F 32.0 °F 86% 30.19 in 10.0 mi West 5.8 mph - N/A   Clear
10:53 PM 37.9 °F - 33.1 °F 83% 30.21 in 10.0 mi Calm Calm - N/A   Scattered Clouds
11:53 PM 37.0 °F - 33.1 °F 86% 30.21 in 10.0 mi Calm Calm - N/A   Clear